Volver al catálogo

SHAREDSAT 2211

ActivoCienciaSSO
NORAD 55016·PAYLOAD·🇧🇬 Bulgaria
Este nombre de satélite aún no ha sido confirmado por fuentes oficiales.

Lanzado Jan 3, 2023 desde Cape Canaveral Space Force Station

Loading…

Próximos Pases (próximas 24 horas)

TLE

ActualizadoSource: Space-Track

Época: Sep 14, 2026, 15:46 UTC

1 55016U 23001H   26257.65696339  .00011389  00000-0  25512-3 0  9992
2 55016  97.3061 322.1078 0007224 136.4612 223.7208 15.43579015206019

Sigue SHAREDSAT 2211 en tiempo real con AllMySat

Download on the App Store